Date_and_time,latitude,longitude,wind_speed,RelWindDirFrom,WindDirFrom,air_pressure,air_temperature,relative_humidity,Temp,platform_speed_wrt_ground,air_pressure_at_mean_sea_level,platform_orientation
2018-05-09 23:50,50.6304033333333,-96.98075,17.0,24.8,354,986.92,7.7,37,6.86,0.0,1013.88,90.0
2018-05-10 00:00,50.6304133333333,-96.9807516666667,19.5,25.3,359,986.99,7.1,40,6.88,0.0,1013.98,147.5
2018-05-10 00:10,50.6304166666667,-96.9807533333333,18.6,25.4,0,987.19,6.3,43,6.77,0.0,1014.30,147.5
2018-05-10 00:20,50.6304433333333,-96.9807566666667,15.6,21.9,358,987.47,6.4,41,6.82,0.0,1014.73,147.5
2018-05-10 00:30,50.6304166666667,-96.9807666666667,17.2,22.8,357,987.46,6.7,39,6.89,0.0,1014.73,147.5
2018-05-10 00:40,50.6304383333333,-96.980765,15.6,20.3,360,987.63,6.3,42,7.00,0.0,1014.93,147.5
2018-05-10 00:50,50.6304416666667,-96.98077,17.4,24.9,356,987.52,6.4,40,7.04,0.0,1014.71,147.5
2018-05-10 01:00,50.63044,-96.980765,17.0,27.4,354,987.75,6.4,37,7.06,0.0,1014.87,360.0
2018-05-10 01:10,50.630445,-96.9807616666667,16.1,25.2,348,987.99,6.5,34,7.05,0.0,1015.10,360.0
2018-05-10 01:20,50.6304416666667,-96.9807616666667,14.9,22.6,346,988.18,6.4,34,7.01,0.0,1015.35,360.0
2018-05-10 01:30,50.6304366666667,-96.9807633333333,14.2,21.1,354,988.41,6.0,38,6.99,0.0,1015.60,360.0
2018-05-10 01:40,50.6304366666667,-96.9807633333333,13.1,19.2,352,988.64,5.6,39,6.91,0.0,1015.86,360.0
2018-05-10 01:50,50.6304366666667,-96.9807633333333,13.5,19.6,348,988.72,5.6,35,6.79,0.0,1015.97,360.0
2018-05-10 02:00,50.630435,-96.980765,12.0,19.5,349,988.88,5.4,35,6.69,0.0,1016.18,318.7
2018-05-10 02:10,50.6304333333333,-96.980765,12.5,17.9,347,988.98,5.2,35,6.63,0.0,1016.28,318.7
2018-05-10 02:20,50.630425,-96.980755,12.3,17.2,344,989.17,5.1,35,6.65,0.0,1016.47,318.7
2018-05-10 02:30,50.6304433333333,-96.9807733333333,12.2,19.2,339,989.20,5.0,35,6.57,0.0,1016.53,318.7
2018-05-10 02:40,50.6304266666667,-96.980755,11.3,16.4,338,989.28,4.8,36,6.52,0.0,1016.62,318.7
2018-05-10 02:50,50.630425,-96.980755,10.7,16.6,340,989.48,4.6,37,6.49,0.0,1016.83,318.7
2018-05-10 03:00,50.6304216666667,-96.98076,10.0,16.0,334,989.64,4.5,37,6.43,0.0,1017.00,311.7
2018-05-10 03:10,50.6304133333333,-96.980765,10.3,16.0,335,989.77,4.3,36,6.37,0.0,1017.15,311.7
2018-05-10 03:20,50.6304216666667,-96.9807683333333,10.9,16.5,337,989.77,4.2,37,6.35,0.0,1017.17,311.7
2018-05-10 03:30,50.63038,-96.9807866666667,10.5,14.4,336,989.87,4.0,38,6.35,0.0,1017.30,311.7
2018-05-10 03:40,50.6304133333333,-96.98078,10.1,15.1,335,990.00,3.8,38,6.34,0.0,1017.44,311.7
2018-05-10 03:50,50.6304133333333,-96.9807733333333,9.5,14.9,332,990.17,3.7,38,6.35,0.0,1017.64,311.7
2018-05-10 04:00,50.6304283333333,-96.980765,7.6,10.9,325,990.30,3.6,38,6.40,0.0,1017.78,360.0
2018-05-10 04:10,50.6304233333333,-96.9807666666667,7.4,10.3,319,990.39,3.5,38,6.47,0.0,1017.89,360.0
2018-05-10 04:20,50.630425,-96.9807666666667,6.6,10.5,318,990.45,3.3,39,6.49,0.0,1017.97,360.0
2018-05-10 04:30,50.630425,-96.9807666666667,5.2,7.5,306,990.52,3.0,40,6.53,0.0,1018.06,360.0
2018-05-10 04:40,50.630425,-96.9807666666667,4.1,6.5,284,990.61,2.7,41,6.56,0.0,1018.17,360.0
2018-05-10 04:50,50.630415,-96.980765,4.5,6.5,287,990.64,2.2,42,6.57,0.0,1018.24,360.0
2018-05-10 05:00,50.6304133333333,-96.9807433333333,4.9,7.2,286,990.68,1.9,43,6.60,0.0,1018.30,142.3
2018-05-10 05:10,50.6304366666667,-96.9807633333333,5.7,7.7,278,990.76,1.5,44,6.64,0.0,1018.41,142.3
2018-05-10 05:20,50.6304416666667,-96.98076,5.9,7.9,283,990.82,1.3,44,6.70,0.0,1018.49,142.3
2018-05-10 05:30,50.630435,-96.9807633333333,5.8,8.0,284,990.85,1.2,45,6.75,0.0,1018.54,142.3
2018-05-10 05:40,50.6304316666667,-96.980765,5.7,8.1,288,990.87,1.1,45,6.82,0.0,1018.57,142.3
2018-05-10 05:50,50.6304283333333,-96.98076,5.4,7.5,287,990.93,1.0,46,6.87,0.0,1018.65,142.3
2018-05-10 06:00,50.630425,-96.98076,5.8,8.0,283,991.01,0.9,47,6.88,0.0,1018.74,360.0
2018-05-10 06:10,50.6304233333333,-96.98076,5.9,8.1,288,991.09,0.7,47,6.87,0.0,1018.85,360.0
2018-05-10 06:20,50.63042,-96.9807616666667,5.9,8.0,287,991.19,0.5,48,6.87,0.0,1018.96,360.0
2018-05-10 06:30,50.63042,-96.9807633333333,6.2,8.6,288,991.18,0.4,48,6.86,0.0,1018.98,360.0
2018-05-10 06:40,50.6304233333333,-96.9807883333333,6.3,8.8,292,991.24,0.4,48,6.84,0.0,1019.06,360.0
2018-05-10 06:50,50.6304166666667,-96.9807716666667,6.9,10.4,290,991.27,0.4,48,6.81,0.0,1019.12,360.0
2018-05-10 07:00,50.6304166666667,-96.9807666666667,7.9,11.2,294,991.25,0.2,49,6.79,0.0,1019.12,360.0
2018-05-10 07:10,50.6304166666667,-96.9807683333333,8.0,11.2,297,991.27,0.2,50,6.77,0.0,1019.15,360.0
2018-05-10 07:20,50.6303816666667,-96.9807566666667,8.2,11.4,297,991.31,0.3,50,6.76,0.0,1019.19,360.0
2018-05-10 07:30,50.630405,-96.9807633333333,7.7,11.1,305,991.41,0.2,51,6.73,0.0,1019.31,360.0
2018-05-10 07:40,50.63041,-96.9807616666667,7.9,12.2,301,991.46,0.3,51,6.69,0.0,1019.36,360.0
2018-05-10 07:50,50.63041,-96.9807566666667,8.4,10.7,299,991.50,0.2,51,6.66,0.0,1019.41,360.0
2018-05-10 08:00,50.63044,-96.9808,8.0,10.5,296,991.60,0.0,52,6.61,0.0,1019.54,307.6
2018-05-10 08:10,50.6304133333333,-96.9807633333333,8.5,11.0,297,991.65,-0.2,53,6.57,0.0,1019.60,307.6
2018-05-10 08:20,50.6304083333333,-96.9807633333333,8.1,10.7,294,991.71,-0.3,53,6.54,0.0,1019.67,307.6
2018-05-10 08:30,50.6304333333333,-96.9807616666667,7.5,11.4,293,991.79,-0.3,54,6.53,0.0,1019.76,307.6
2018-05-10 08:40,50.6304266666667,-96.9807516666667,6.0,9.6,297,991.92,-0.5,54,6.52,0.0,1019.90,307.6
2018-05-10 08:50,50.6304116666667,-96.9807633333333,5.9,8.5,292,991.99,-0.6,55,6.52,0.0,1019.99,307.6
2018-05-10 09:00,50.6304166666667,-96.9807633333333,6.3,9.4,293,992.14,-0.8,55,6.51,0.0,1020.16,360.0
2018-05-10 09:10,50.63044,-96.9807266666667,6.3,8.4,297,992.21,-0.8,56,6.51,0.0,1020.22,360.0
2018-05-10 09:20,50.63044,-96.98074,6.4,8.9,294,992.27,-0.9,56,6.49,0.0,1020.29,360.0
2018-05-10 09:30,50.630435,-96.9807466666667,6.0,8.4,289,992.41,-1.1,56,6.48,0.0,1020.44,360.0
2018-05-10 09:40,50.6304316666667,-96.9807483333333,6.0,8.2,289,992.47,-1.4,57,6.48,0.0,1020.52,360.0
2018-05-10 09:50,50.63045,-96.9807583333333,6.5,8.9,292,992.47,-1.4,57,6.47,0.0,1020.54,360.0
2018-05-10 10:00,50.6304316666667,-96.9807816666667,6.7,9.3,296,992.53,-1.5,57,6.45,0.0,1020.61,328.9
2018-05-10 10:10,50.6304133333333,-96.980745,6.8,9.7,296,992.57,-1.5,57,6.42,0.0,1020.66,328.9
2018-05-10 10:20,50.6304283333333,-96.9807483333333,6.4,8.4,295,992.66,-1.6,57,6.41,0.0,1020.76,328.9
2018-05-10 10:30,50.630395,-96.9807466666667,6.1,8.9,294,992.72,-1.6,57,6.40,0.0,1020.83,328.9
2018-05-10 10:40,50.63043,-96.98075,6.9,9.9,293,992.68,-1.6,57,6.39,0.0,1020.80,328.9
2018-05-10 10:50,50.63043,-96.98075,7.0,9.2,293,992.71,-1.7,57,6.38,0.0,1020.84,328.9
2018-05-10 11:00,50.63043,-96.9807483333333,6.8,9.6,294,992.84,-1.8,57,6.36,0.0,1020.97,119.1
2018-05-10 11:10,50.6304316666667,-96.9807516666667,7.6,10.3,297,992.94,-1.7,56,6.35,0.0,1021.08,119.1
2018-05-10 11:20,50.6304333333333,-96.9807516666667,7.8,11.7,297,993.05,-1.7,56,6.34,0.0,1021.20,119.1
2018-05-10 11:30,50.6304333333333,-96.9807533333333,8.3,11.2,292,993.17,-1.5,55,6.32,0.0,1021.34,119.1
2018-05-10 11:40,50.6304333333333,-96.9807533333333,8.7,11.8,293,993.22,-1.3,54,6.30,0.0,1021.38,119.1
2018-05-10 11:50,50.6304316666667,-96.9807533333333,7.6,10.6,291,993.35,-1.1,53,6.29,0.0,1021.51,119.1
2018-05-10 12:00,50.6304316666667,-96.9807516666667,7.8,11.2,290,993.49,-0.9,52,6.27,0.0,1021.64,3.2
2018-05-10 12:10,50.6304083333333,-96.980735,7.6,11.1,291,993.60,-0.6,51,6.23,0.0,1021.74,3.2
2018-05-10 12:20,50.63042,-96.980745,8.3,12.0,295,993.72,-0.4,50,6.19,0.0,1021.86,3.2
2018-05-10 12:30,50.630415,-96.9807533333333,7.9,11.4,297,993.82,-0.1,49,6.17,0.0,1021.94,3.2
2018-05-10 12:40,50.6304216666667,-96.9807516666667,7.9,12.8,301,993.92,0.3,48,6.17,0.0,1022.03,3.2
2018-05-10 12:50,50.6304416666667,-96.9807633333333,9.0,13.6,305,993.95,0.6,46,6.18,0.0,1022.04,3.2
2018-05-10 13:00,50.630425,-96.9807666666667,9.4,12.3,310,994.03,0.8,45,6.16,0.0,1022.12,111.5
2018-05-10 13:10,50.6304316666667,-96.9807716666667,9.2,15.3,309,993.98,1.0,45,6.14,0.0,1022.05,111.5
2018-05-10 13:20,50.6304233333333,-96.9807633333333,8.9,13.3,318,994.08,1.2,44,6.11,0.0,1022.13,111.5
2018-05-10 13:30,50.6304016666667,-96.980765,7.7,12.0,317,994.26,1.6,43,6.08,0.0,1022.29,111.5
2018-05-10 13:40,50.6304183333333,-96.980765,9.3,14.3,330,994.24,1.9,41,6.07,0.0,1022.24,111.5
2018-05-10 13:50,50.6304383333333,-96.9807566666667,8.8,13.3,326,994.35,2.3,38,6.06,0.0,1022.33,111.5
2018-05-10 14:00,50.630435,-96.9807633333333,9.7,14.6,337,994.40,2.6,37,6.05,0.0,1022.34,323.4
2018-05-10 14:10,50.6304316666667,-96.9807616666667,9.7,15.0,342,994.47,2.9,37,6.04,0.0,1022.39,323.4
2018-05-10 14:20,50.6304316666667,-96.9807766666667,12.6,20.0,349,994.56,2.6,38,6.04,0.0,1022.48,323.4
2018-05-10 14:30,50.6304416666667,-96.980775,13.9,19.0,3,994.70,2.3,40,6.05,0.0,1022.62,323.4
2018-05-10 14:40,50.63044,-96.980765,12.6,16.8,14,994.84,2.1,46,6.07,0.0,1022.76,323.4
2018-05-10 14:50,50.63044,-96.9807616666667,12.2,17.9,29,995.03,1.2,62,6.07,0.0,1022.99,323.4
2018-05-10 15:00,50.6304383333333,-96.9807566666667,12.2,14.2,32,995.10,0.8,64,6.01,0.0,1023.07,345.5
2018-05-10 15:10,50.630425,-96.980755,12.2,14.3,36,995.22,0.6,68,6.01,0.0,1023.19,345.5
2018-05-10 15:20,50.6304216666667,-96.9807616666667,12.3,14.6,36,995.38,0.5,69,6.03,0.0,1023.35,345.5
2018-05-10 15:30,50.63044,-96.98076,12.3,14.8,37,995.41,0.5,68,6.07,0.0,1023.36,345.5
2018-05-10 15:40,50.6304383333333,-96.9807583333333,12.6,15.0,34,995.41,0.6,67,6.13,0.0,1023.34,345.5
2018-05-10 15:50,50.6304383333333,-96.980755,13.2,15.5,38,995.49,0.6,66,6.16,0.0,1023.40,345.5
2018-05-10 16:00,50.6304366666667,-96.980755,13.6,15.7,36,995.53,0.6,65,6.19,0.0,1023.43,41.3
2018-05-10 16:10,50.630415,-96.9807666666667,15.1,17.5,34,995.53,0.6,61,6.23,0.0,1023.44,41.3
2018-05-10 16:20,50.6304366666667,-96.9807633333333,14.6,17.0,34,995.64,0.7,59,6.27,0.0,1023.57,41.3
2018-05-10 16:30,50.6304366666667,-96.9807616666667,13.5,16.5,38,995.64,0.7,61,6.31,0.0,1023.58,41.3
2018-05-10 16:40,50.630445,-96.9808,14.4,16.6,39,995.56,0.7,60,6.32,0.0,1023.53,41.3
2018-05-10 16:50,50.63044,-96.9807633333333,14.1,16.5,39,995.57,0.8,59,6.39,0.0,1023.57,41.3
2018-05-10 17:00,50.6304383333333,-96.9807633333333,13.9,16.5,33,995.60,0.8,58,6.44,0.0,1023.61,360.0
2018-05-10 17:10,50.6304383333333,-96.9807633333333,12.9,14.4,37,995.71,0.8,59,6.46,0.0,1023.73,360.0
2018-05-10 17:20,50.6304366666667,-96.980765,12.1,14.4,39,995.69,0.8,62,6.43,0.0,1023.71,360.0
2018-05-10 17:30,50.6304366666667,-96.9807633333333,11.4,14.1,42,995.79,0.9,61,6.42,0.0,1023.80,360.0
2018-05-10 17:40,50.6304366666667,-96.9807633333333,11.9,14.0,42,995.78,0.9,62,6.43,0.0,1023.79,360.0
2018-05-10 17:50,50.6304366666667,-96.980765,11.3,12.6,47,995.80,0.9,62,6.46,0.0,1023.81,360.0
2018-05-10 18:00,50.6304366666667,-96.980765,11.2,13.1,48,995.68,1.0,60,6.49,0.0,1023.68,192.6
2018-05-10 18:10,50.6304366666667,-96.980765,10.6,12.1,48,995.60,1.0,62,6.53,0.0,1023.59,192.6
2018-05-10 18:20,50.630435,-96.9807633333333,8.5,10.4,52,995.67,1.1,62,6.57,0.0,1023.65,192.6
2018-05-10 18:30,50.630425,-96.980745,8.9,10.3,58,995.61,1.2,62,6.62,0.0,1023.59,192.6
2018-05-10 18:40,50.6304266666667,-96.980755,9.4,11.9,62,995.38,1.2,62,6.66,0.0,1023.35,192.6
2018-05-10 18:50,50.6304416666667,-96.98077,10.5,13.4,59,995.19,1.3,64,6.70,0.0,1023.15,192.6
2018-05-10 19:00,50.6304383333333,-96.980755,10.7,12.8,61,995.20,1.3,62,6.69,0.0,1023.16,360.0
2018-05-10 19:10,50.6304316666667,-96.9807666666667,10.8,13.0,58,995.19,1.4,60,6.63,0.0,1023.15,360.0
2018-05-10 19:20,50.63043,-96.980765,9.4,12.1,63,995.24,1.5,60,6.59,0.0,1023.19,360.0
2018-05-10 19:30,50.63043,-96.980765,11.0,13.3,61,995.15,1.6,61,6.55,0.0,1023.09,360.0
2018-05-10 19:40,50.63044,-96.9807433333333,9.5,11.8,66,995.25,1.7,64,6.55,0.0,1023.19,360.0
2018-05-10 19:50,50.6304366666667,-96.980745,9.1,10.9,71,995.34,1.8,67,6.74,0.0,1023.27,360.0
2018-05-10 20:00,50.630425,-96.9807583333333,10.8,13.3,64,995.19,1.6,65,6.72,0.0,1023.12,156.5
2018-05-10 20:10,50.6304333333333,-96.9807583333333,11.1,12.9,65,995.20,1.6,65,6.60,0.0,1023.12,156.5
2018-05-10 20:20,50.6304316666667,-96.9807583333333,9.5,11.5,66,995.26,1.8,65,6.43,0.0,1023.18,156.5
2018-05-10 20:30,50.63043,-96.9807566666667,9.9,11.9,61,995.19,1.8,61,6.35,0.0,1023.11,156.5
2018-05-10 20:40,50.630435,-96.98076,10.0,12.5,64,995.27,1.9,60,6.36,0.0,1023.17,156.5
2018-05-10 20:50,50.6304366666667,-96.98076,8.9,10.5,63,995.16,2.0,61,6.34,0.0,1023.05,156.5
2018-05-10 21:00,50.6304383333333,-96.98076,10.1,12.3,64,995.01,2.1,59,6.44,0.0,1022.90,12.6
2018-05-10 21:10,50.6304383333333,-96.98076,10.0,11.4,57,994.91,2.0,62,6.49,0.0,1022.79,12.6
2018-05-10 21:20,50.6304433333333,-96.980765,8.8,11.0,62,994.91,2.2,59,6.42,0.0,1022.78,12.6
2018-05-10 21:30,50.6304433333333,-96.980765,8.2,9.8,62,995.01,2.3,57,6.45,0.0,1022.87,12.6
2018-05-10 21:40,50.63044,-96.9807683333333,8.0,9.3,59,995.00,2.5,55,6.47,0.0,1022.85,12.6
2018-05-10 21:50,50.630425,-96.9807683333333,7.1,9.0,72,995.09,3.0,49,6.48,0.0,1022.92,12.6
2018-05-10 22:00,50.6304266666667,-96.980765,5.8,7.6,78,995.16,3.7,47,6.40,0.0,1022.96,360.0
2018-05-10 22:10,50.6304466666667,-96.9807916666667,4.0,5.8,77,995.23,3.9,47,6.42,0.0,1023.01,360.0
2018-05-10 22:20,50.6304033333333,-96.9807333333333,2.2,3.4,87,995.24,5.0,45,6.44,0.0,1022.96,360.0
2018-05-10 22:30,50.6304266666667,-96.980755,2.5,3.4,77,995.16,4.8,46,6.54,0.0,1022.88,360.0
2018-05-10 22:40,50.6304266666667,-96.980755,2.0,2.9,71,995.15,4.2,47,6.66,0.0,1022.90,360.0
2018-05-10 22:50,50.630425,-96.9807666666667,1.9,4.6,165,995.11,4.3,51,6.76,0.0,1022.86,360.0
2018-05-10 23:00,50.6304333333333,-96.9807583333333,4.4,7.2,156,994.96,3.2,46,6.80,0.0,1022.75,38.0
2018-05-10 23:10,50.630435,-96.98076,4.1,6.5,90,994.92,4.4,41,6.84,0.0,1022.64,38.0
2018-05-10 23:20,50.6304333333333,-96.98076,5.1,6.2,61,994.80,4.1,42,6.90,0.0,1022.53,38.0
2018-05-10 23:30,50.6304416666667,-96.9807733333333,2.3,4.8,60,994.83,3.8,47,7.04,0.0,1022.57,38.0
